[[{"header":{"parameterUnit":"m.s-1","parameterCategory":1,"la1":30.2991,"la2":30.254,"lo1":-89.0895,"lo2":-89.0444,"dy":0.0017,"dx":0.0017,"nx":28,"ny":28,"refTime":"2025-12-11T09:00:00:Z","depth":0,"parameterNumber":2,"parameterNumberName":"U-component_of_WINDS"},"data":[0,0,0,0,0,0,0,0,0,0,0,0,0,0,0,0,0,0,0,0,0,0,0,0,0,0,0,0,0,0,0,0,0,0,0,0,0,0,0,0,0,0,0,0,0,0,0,0,0,0,0,0,0,0,0,0,0,0,-1.2904,-1.2905,0,-1.2967,-1.2968,-1.2968,-1.2929,-1.2928,-1.2926,-1.2924,-1.2991,-1.2994,-1.2998,0,0,0,0,0,0,0,0,0,0,0,0,0,-1.2751,-1.2754,-1.2904,-1.2905,-1.2905,-1.2967,-1.2968,-1.2968,-1.293,-1.2928,-1.2925,-1.2923,-1.299,-1.2994,-1.2998,0,0,0,0,0,0,0,0,0,0,0,0,0,-1.2816,-1.2755,-1.2904,-1.2893,-1.2893,-1.2967,-1.2968,-1.2969,-1.293,-1.2927,-1.2925,-1.2922,-1.2988,-1.2993,-1.2998,-1.3086,0,0,-1.3014,-1.3017,0,0,0,0,0,0,0,0,-1.2813,-1.2822,-1.2894,-1.2894,-1.2894,-1.2937,-1.2938,-1.3008,-1.2931,-1.2916,-1.2924,-1.2921,-1.2975,-1.2981,-1.2999,-1.3089,-1.3092,-1.3015,-1.3018,-1.302,-1.3022,0,0,0,0,0,0,0,-1.2808,-1.2819,-1.2929,-1.2895,-1.2895,-1.2886,-1.2892,-1.2951,-1.2961,-1.2917,-1.2915,-1.2922,-1.2975,-1.2994,-1.3001,-1.3093,-1.3015,-1.3019,-1.3023,-1.3025,-1.3257,-1.326,0,0,0,0,0,0,-1.2804,-1.2815,-1.2927,-1.2931,-1.2846,-1.2891,-1.2898,-1.2926,-1.296,-1.2962,-1.2925,-1.292,-1.2987,-1.2995,-1.3003,-1.3108,-1.302,-1.3025,-1.3028,-1.3254,-1.3258,-1.3261,0,0,0,0,0,0,-1.2801,-1.2814,-1.2924,-1.2872,-1.2886,-1.2897,-1.2929,-1.2929,-1.2949,-1.2965,-1.2967,-1.2943,-1.2985,-1.2996,-1.3065,-1.311,-1.3028,-1.3032,-1.3251,-1.3255,-1.326,-1.3319,0,0,0,0,0,0,-1.2797,-1.2814,-1.2847,-1.2873,-1.2889,-1.2986,-1.2932,-1.2932,-1.2958,-1.2953,-1.2983,-1.2986,-1.2984,-1.3058,-1.3071,-1.3115,-1.3036,-1.3247,-1.3253,-1.3258,-1.3313,-1.3325,-1.3335,0,0,0,0,0,-1.2792,-1.2862,-1.2849,-1.2863,-1.2931,-1.2989,-1.2997,-1.2993,-1.2961,-1.2995,-1.3006,-1.2985,-1.3102,-1.3065,-1.3079,-1.3126,-1.3244,-1.3251,-1.3258,-1.3308,-1.3322,-1.3334,0,0,0,0,0,0,-1.2842,-1.2865,-1.2851,-1.2932,-1.2958,-1.2982,-1.3025,-1.3008,-1.3045,-1.3039,-1.3032,-1.304,-1.3113,-1.3126,-1.3085,-1.3213,-1.3168,-1.3178,-1.3202,-1.3215,-1.3226,-1.3222,-1.3041,0,0,0,0,0,-1.2862,-1.2907,-1.2925,-1.2994,-1.3008,-1.3014,-1.3039,-1.3033,-1.3061,-1.3072,-1.3088,-1.3116,-1.3159,-1.3187,-1.3228,-1.3314,-1.332,-1.3353,-1.3364,-1.3373,-1.3382,-1.3428,-1.3443,-1.3284,-1.3283,-1.3283,0,0,-1.2905,-1.2923,-1.2952,-1.3005,-1.3025,-1.3071,-1.3024,-1.3076,-1.311,-1.308,-1.3147,-1.3159,-1.319,-1.3268,-1.3303,-1.3282,-1.3427,-1.3381,-1.3388,-1.3393,-1.3437,-1.3452,-1.3465,-1.3288,-1.3287,-1.3287,0,0,-1.3007,-1.3025,-1.3085,-1.3105,-1.3135,-1.3138,-1.3153,-1.3178,-1.3185,-1.3251,-1.323,-1.327,-1.3345,-1.3368,-1.3389,-1.3497,-1.3479,-1.351,-1.3569,-1.3613,-1.3626,-1.3637,-1.3676,-1.3691,-1.3519,-1.3519,-1.3519,0,-1.3057,-1.3126,-1.3118,-1.3171,-1.3195,-1.3168,-1.3229,-1.3249,-1.3291,-1.3308,-1.3283,-1.3375,-1.3394,-1.3477,-1.3503,-1.352,-1.3537,-1.3508,-1.3625,-1.3636,-1.3646,-1.3684,-1.3698,-1.3523,-1.3523,-1.3522,-1.3522,0,-1.3187,-1.3235,-1.3279,-1.332,-1.3348,-1.3405,-1.3405,-1.3435,-1.3426,-1.3432,-1.35,-1.3521,-1.3565,-1.3584,-1.3576,-1.3665,-1.3651,-1.3625,-1.3581,-1.3665,-1.37,-1.3714,-1.3528,-1.3527,-1.3526,-1.3525,0,0,-1.3325,-1.3358,-1.3375,-1.3393,-1.3423,-1.346,-1.3515,-1.3557,-1.3583,-1.3612,-1.3658,-1.3721,-1.3697,-1.3721,-1.3715,-1.3754,-1.3839,-1.3723,-1.3724,-1.3745,-1.3939,-1.3959,-1.3976,-1.3826,-1.3829,-1.3831,-1.3937,0,-1.343,-1.3526,-1.3519,-1.3609,-1.3654,-1.3627,-1.3675,-1.3699,-1.3705,-1.3744,-1.375,-1.3795,-1.3759,-1.3774,-1.3811,-1.3821,-1.3878,-1.3812,-1.387,-1.3872,-1.3865,-1.3994,-1.4016,-1.4115,-1.395,-1.3952,-1.3954,0,-1.3566,-1.3599,-1.3694,-1.3716,-1.3734,-1.3777,-1.3815,-1.3852,-1.3878,-1.3879,-1.3905,-1.3892,-1.3947,-1.3899,-1.3976,-1.3931,-1.3954,-1.3962,-1.3965,-1.3972,-1.392,-1.4006,-1.4147,-1.4162,-1.3976,-1.3974,-1.3972,0,-1.3659,-1.3727,-1.3792,-1.3808,-1.3835,-1.3866,-1.3879,-1.3901,-1.3927,-1.3959,-1.3976,-1.4014,-1.4036,-1.4066,-1.4064,-1.4029,-1.4141,-1.4094,-1.4145,-1.4145,-1.4172,-1.4171,-1.432,-1.4184,-1.4183,-1.4183,-1.4183,0,-1.3778,-1.3838,-1.3834,-1.3874,-1.394,-1.393,-1.3995,-1.4005,-1.4025,-1.4067,-1.4045,-1.4085,-1.4079,-1.4118,-1.4116,-1.418,-1.419,-1.4193,-1.4192,-1.4196,-1.4196,-1.4212,-1.4206,-1.4187,-1.4186,-1.4185,-1.4185,0,-1.3894,-1.3894,-1.3964,-1.3983,-1.3989,-1.4036,-1.4053,-1.4091,-1.4094,-1.4147,-1.4159,-1.4165,-1.421,-1.421,-1.4262,-1.426,-1.4338,-1.4329,-1.433,-1.4329,-1.438,-1.4376,-1.4547,-1.4569,-1.4417,-1.4418,-1.442,0,-1.3971,-1.4016,-1.4039,-1.4065,-1.408,-1.4122,-1.4147,-1.4139,-1.4167,-1.4198,-1.4233,-1.4276,-1.431,-1.4384,-1.4392,-1.4432,-1.4424,-1.4481,-1.443,-1.4432,-1.4426,-1.4424,-1.4429,-1.4492,-1.4493,-1.4495,-1.4496,0,-1.4108,-1.4105,-1.4142,-1.4179,-1.421,-1.4238,-1.4265,-1.4287,-1.4282,-1.4314,-1.4359,-1.4386,-1.4437,-1.4481,-1.4518,-1.4531,-1.4514,-1.4511,-1.4526,-1.4531,-1.453,-1.4532,-1.4359,-1.4508,-1.4507,-1.4506,-1.4505,-1.4505,-1.4208,-1.4246,-1.4269,-1.431,-1.4329,-1.4353,-1.439,-1.4397,-1.4435,-1.4476,-1.4468,-1.452,-1.4543,-1.4591,-1.4607,-1.4647,-1.4627,-1.4647,-1.4653,-1.4658,-1.4665,-1.4522,-1.4654,-1.4653,-1.4653,-1.4653,-1.4652,0,-1.4345,-1.4357,-1.4395,-1.4432,-1.4465,-1.4443,-1.447,-1.4499,-1.4544,-1.4567,-1.4601,-1.4652,-1.4694,-1.4705,-1.4744,-1.4774,-1.4766,-1.4785,-1.4783,-1.4787,-1.468,-1.4664,-1.479,-1.479,-1.479,-1.479,-1.479,-1.479,-1.442,-1.4484,-1.4483,-1.4556,-1.4567,-1.4617,-1.4634,-1.4657,-1.4675,-1.4734,-1.4767,-1.4774,-1.4792,-1.4832,-1.4868,-1.487,-1.4887,-1.4909,-1.4907,-1.4808,-1.4794,-1.4781,-1.4766,-1.4912,-1.4912,-1.5011,-1.5012,-1.5013]},{"header":{"parameterUnit":"m.s-1","parameterCategory":1,"la1":30.2991,"la2":30.254,"lo1":-89.0895,"lo2":-89.0444,"dy":0.0017,"dx":0.0017,"nx":28,"ny":28,"refTime":"2025-12-11T09:00:00:Z","depth":0,"parameterNumber":3,"parameterNumberName":"V-component_of_WINDS"},"data":[0,0,0,0,0,0,0,0,0,0,0,0,0,0,0,0,0,0,0,0,0,0,0,0,0,0,0,0,0,0,0,0,0,0,0,0,0,0,0,0,0,0,0,0,0,0,0,0,0,0,0,0,0,0,0,0,0,0,-5.1282,-5.1283,0,-5.144,-5.1442,-5.1444,-5.1387,-5.1383,-5.1379,-5.1376,-5.1538,-5.1545,-5.1552,0,0,0,0,0,0,0,0,0,0,0,0,0,-5.0928,-5.0934,-5.1281,-5.1283,-5.1285,-5.144,-5.1442,-5.1444,-5.1387,-5.1383,-5.1379,-5.1374,-5.1535,-5.1544,-5.1553,0,0,0,0,0,0,0,0,0,0,0,0,0,-5.1083,-5.0937,-5.1281,-5.1276,-5.1277,-5.1439,-5.1442,-5.1445,-5.1388,-5.1383,-5.1377,-5.1372,-5.1532,-5.1543,-5.1554,-5.1732,0,0,-5.1589,-5.1594,0,0,0,0,0,0,0,0,-5.1075,-5.1096,-5.1274,-5.1276,-5.1278,-5.1388,-5.1376,-5.1541,-5.1389,-5.1346,-5.1376,-5.137,-5.1492,-5.1506,-5.1548,-5.1739,-5.1746,-5.159,-5.1597,-5.1602,-5.1605,0,0,0,0,0,0,0,-5.1064,-5.1089,-5.1344,-5.1277,-5.1279,-5.1265,-5.1281,-5.1407,-5.1447,-5.1349,-5.1345,-5.1365,-5.1492,-5.1537,-5.1551,-5.1749,-5.159,-5.16,-5.1607,-5.1612,-5.2093,-5.2098,0,0,0,0,0,0,-5.1052,-5.1081,-5.1339,-5.1349,-5.1161,-5.1275,-5.1294,-5.1358,-5.1445,-5.1454,-5.1369,-5.1362,-5.152,-5.1538,-5.1557,-5.177,-5.1602,-5.1613,-5.1619,-5.2087,-5.2094,-5.21,0,0,0,0,0,0,-5.1045,-5.1076,-5.1333,-5.1214,-5.1245,-5.1287,-5.136,-5.1364,-5.1409,-5.1461,-5.1467,-5.1408,-5.1517,-5.1541,-5.1689,-5.1775,-5.1618,-5.1628,-5.208,-5.2089,-5.2097,-5.2199,0,0,0,0,0,0,-5.1035,-5.1074,-5.1142,-5.1216,-5.1252,-5.1463,-5.1365,-5.1371,-5.1429,-5.1421,-5.1499,-5.1507,-5.1514,-5.1672,-5.17,-5.1788,-5.1637,-5.2072,-5.2084,-5.2094,-5.2188,-5.221,-5.2229,0,0,0,0,0,-5.1023,-5.1164,-5.1146,-5.1177,-5.1338,-5.1468,-5.1489,-5.1495,-5.1436,-5.1505,-5.1538,-5.1504,-5.1761,-5.1688,-5.1719,-5.1811,-5.2067,-5.2081,-5.2094,-5.2178,-5.2205,-5.2228,0,0,0,0,0,0,-5.11,-5.1174,-5.1154,-5.1324,-5.139,-5.1458,-5.1545,-5.1523,-5.1607,-5.1596,-5.1599,-5.1617,-5.177,-5.1805,-5.1722,-5.1987,-5.1905,-5.1925,-5.1959,-5.1985,-5.2005,-5.1994,-5.1647,0,0,0,0,0,-5.1136,-5.1236,-5.1295,-5.1439,-5.1473,-5.1504,-5.156,-5.1559,-5.1628,-5.1655,-5.1699,-5.1767,-5.1862,-5.1925,-5.2016,-5.2192,-5.2208,-5.2271,-5.2291,-5.2308,-5.2326,-5.2421,-5.2449,-5.2144,-5.2144,-5.2144,0,0,-5.1213,-5.1266,-5.1328,-5.1456,-5.1507,-5.1609,-5.1528,-5.164,-5.1716,-5.1672,-5.1815,-5.1849,-5.1925,-5.2087,-5.2161,-5.2121,-5.2413,-5.2325,-5.2338,-5.2347,-5.2438,-5.2466,-5.2492,-5.2153,-5.2152,-5.215,0,0,-5.1406,-5.1456,-5.1581,-5.1634,-5.1712,-5.1731,-5.1761,-5.1833,-5.1854,-5.1997,-5.1967,-5.2057,-5.2221,-5.2276,-5.2326,-5.2538,-5.251,-5.2567,-5.2675,-5.2768,-5.2792,-5.2813,-5.289,-5.2917,-5.2585,-5.2585,-5.2585,0,-5.1492,-5.1645,-5.1648,-5.1763,-5.182,-5.1785,-5.1912,-5.1962,-5.2067,-5.2106,-5.206,-5.2266,-5.2314,-5.2489,-5.2541,-5.2582,-5.2616,-5.2559,-5.2788,-5.281,-5.283,-5.2902,-5.2931,-5.2591,-5.2591,-5.259,-5.2589,0,-5.1747,-5.1854,-5.1946,-5.2047,-5.2114,-5.2234,-5.2255,-5.2322,-5.2314,-5.2338,-5.2484,-5.254,-5.2642,-5.2683,-5.2677,-5.2858,-5.283,-5.2787,-5.2704,-5.2865,-5.2934,-5.2961,-5.2601,-5.2598,-5.2597,-5.2595,0,0,-5.1994,-5.2095,-5.2129,-5.2174,-5.2258,-5.234,-5.2458,-5.2558,-5.2615,-5.2688,-5.2787,-5.2926,-5.2886,-5.2942,-5.2942,-5.3023,-5.3188,-5.2969,-5.2971,-5.3008,-5.339,-5.3424,-5.3456,-5.3169,-5.3175,-5.3179,-5.3384,0,-5.2194,-5.2402,-5.2408,-5.2598,-5.2697,-5.2664,-5.2767,-5.2829,-5.2854,-5.2941,-5.2968,-5.3067,-5.3006,-5.304,-5.3119,-5.3151,-5.3265,-5.3136,-5.3261,-5.3266,-5.3245,-5.3491,-5.3527,-5.3718,-5.3411,-5.3415,-5.3418,0,-5.2456,-5.2537,-5.2737,-5.2806,-5.2847,-5.294,-5.3031,-5.3115,-5.3184,-5.3196,-5.3259,-5.3246,-5.3365,-5.3278,-5.3443,-5.3356,-5.3407,-5.343,-5.3438,-5.3451,-5.3353,-5.3512,-5.3779,-5.3809,-5.346,-5.3457,-5.3454,0,-5.2617,-5.2776,-5.2916,-5.2956,-5.3039,-5.3105,-5.3143,-5.3206,-5.3266,-5.3345,-5.3383,-5.3476,-5.3526,-5.3598,-5.361,-5.3545,-5.3775,-5.3689,-5.3789,-5.3789,-5.384,-5.3837,-5.4121,-5.3871,-5.3871,-5.387,-5.387,0,-5.284,-5.2964,-5.2989,-5.3076,-5.3214,-5.3218,-5.3354,-5.3386,-5.3443,-5.3535,-5.3512,-5.3598,-5.3608,-5.3697,-5.3707,-5.3842,-5.3865,-5.3878,-5.388,-5.3881,-5.388,-5.3916,-5.3903,-5.3878,-5.3876,-5.3875,-5.3874,0,-5.3044,-5.3066,-5.3217,-5.3283,-5.3303,-5.3401,-5.3458,-5.354,-5.3562,-5.3678,-5.3706,-5.374,-5.3844,-5.3862,-5.3984,-5.3991,-5.4152,-5.414,-5.413,-5.4128,-5.4227,-5.4218,-5.4545,-5.4589,-5.431,-5.4313,-5.4315,0,-5.3186,-5.328,-5.3357,-5.3417,-5.3458,-5.3555,-5.3615,-5.3622,-5.3686,-5.3771,-5.3843,-5.3944,-5.4026,-5.4193,-5.4228,-5.4321,-5.4311,-5.4419,-5.4325,-5.4323,-5.4313,-5.4308,-5.4318,-5.4438,-5.4441,-5.4443,-5.4445,0,-5.3435,-5.3441,-5.3529,-5.3621,-5.3694,-5.3767,-5.3835,-5.3886,-5.3902,-5.3974,-5.408,-5.4143,-5.4268,-5.4368,-5.4461,-5.4498,-5.4475,-5.4474,-5.4502,-5.4506,-5.4496,-5.4503,-5.418,-5.4467,-5.4465,-5.4463,-5.4462,-5.4461,-5.3613,-5.3696,-5.3762,-5.3861,-5.3913,-5.3978,-5.4059,-5.409,-5.4179,-5.4281,-5.4279,-5.4396,-5.4461,-5.4583,-5.4626,-5.4717,-5.4682,-5.4723,-5.4733,-5.4743,-5.4753,-5.4481,-5.4733,-5.4733,-5.4732,-5.4732,-5.4731,0,-5.3862,-5.3903,-5.3994,-5.4091,-5.4168,-5.4139,-5.4213,-5.428,-5.4382,-5.4445,-5.4526,-5.4647,-5.4744,-5.4787,-5.4882,-5.4946,-5.4938,-5.4971,-5.4967,-5.4976,-5.4778,-5.4745,-5.4977,-5.4977,-5.4977,-5.4976,-5.4976,-5.4976,-5.4001,-5.4139,-5.4153,-5.4316,-5.4356,-5.447,-5.4515,-5.4574,-5.4624,-5.4761,-5.4842,-5.4869,-5.4924,-5.5023,-5.511,-5.512,-5.5157,-5.5196,-5.5201,-5.5015,-5.499,-5.4967,-5.4935,-5.5203,-5.5203,-5.5391,-5.5393,-5.5394]}]]